Precipitable_Water
0.78 0.80 0.77 0.74 0.70 0.69 0.69 0.70 0.72 0.73 0.74 0.75 0.75 0.78 0.82 0.87 0.91 0.94 0.97 1.00 0.99 0.97 0.98 1.01 1.04 1.04 1.02 1.01 0.99 0.96 0.93 0.90 0.88 0.88 0.86 0.83 0.80 0.77 0.76 0.75 0.74 0.72
0.74 0.77 0.77 0.74 0.70 0.69 0.70 0.72 0.71 0.69 0.71 0.74 0.76 0.76 0.79 0.82 0.84 0.86 0.89 0.91 0.93 0.93 0.95 0.98 1.04 1.07 1.08 1.05 1.03 0.99 0.96 0.94 0.91 0.94 0.89 0.87 0.84 0.83 0.80 0.79 0.78 0.80
0.74 0.76 0.76 0.70 0.66 0.66 0.67 0.70 0.70 0.69 0.69 0.71 0.74 0.74 0.74 0.79 0.81 0.83 0.85 0.86 0.88 0.90 0.93 0.97 1.02 1.08 1.11 1.11 1.09 1.06 1.02 0.99 0.97 0.97 0.94 0.91 0.90 0.86 0.84 0.84 0.82 0.82
0.74 0.77 0.77 0.75 0.70 0.65 0.67 0.68 0.68 0.68 0.69 0.69 0.69 0.72 0.75 0.77 0.81 0.81 0.82 0.84 0.86 0.88 0.92 0.97 1.02 1.08 1.10 1.11 1.10 1.07 1.07 1.07 1.06 1.05 1.01 1.00 0.96 0.92 0.90 0.89 0.87 0.86
0.71 0.74 0.77 0.79 0.74 0.71 0.69 0.67 0.67 0.68 0.68 0.68 0.72 0.75 0.76 0.77 0.78 0.79 0.80 0.82 0.85 0.89 0.93 0.97 1.02 1.04 1.05 1.05 1.05 1.03 1.04 1.03 1.03 1.03 1.00 0.98 0.98 0.95 0.93 0.91 0.88 0.86
0.68 0.72 0.76 0.76 0.74 0.73 0.70 0.68 0.69 0.72 0.73 0.73 0.74 0.79 0.80 0.81 0.80 0.79 0.79 0.81 0.85 0.88 0.91 0.95 0.97 1.00 1.01 1.01 1.03 1.02 1.02 1.00 1.00 1.01 0.98 0.96 0.96 0.96 0.93 0.91 0.88 0.87
0.64 0.69 0.73 0.74 0.73 0.73 0.71 0.70 0.72 0.74 0.77 0.80 0.83 0.80 0.81 0.82 0.81 0.81 0.83 0.84 0.86 0.88 0.90 0.91 0.93 0.95 0.99 0.98 0.99 0.98 0.98 0.98 0.98 0.97 0.95 0.95 0.96 0.93 0.94 0.91 0.89 0.87
0.63 0.68 0.70 0.71 0.70 0.70 0.70 0.73 0.75 0.76 0.78 0.81 0.80 0.83 0.84 0.83 0.82 0.84 0.86 0.88 0.89 0.90 0.91 0.92 0.93 0.93 0.94 0.94 0.93 0.93 0.93 0.95 0.94 0.93 0.92 0.93 0.94 0.90 0.91 0.92 0.91 0.89
0.61 0.62 0.64 0.66 0.67 0.70 0.71 0.72 0.74 0.74 0.75 0.73 0.72 0.74 0.79 0.80 0.80 0.80 0.81 0.82 0.83 0.84 0.85 0.85 0.86 0.87 0.89 0.90 0.90 0.90 0.90 0.91 0.93 0.93 0.91 0.91 0.90 0.88 0.88 0.91 0.91 0.90
0.57 0.59 0.60 0.61 0.60 0.61 0.61 0.63 0.66 0.67 0.68 0.67 0.67 0.68 0.68 0.73 0.77 0.78 0.79 0.79 0.77 0.78 0.79 0.80 0.81 0.83 0.84 0.85 0.87 0.87 0.87 0.87 0.89 0.90 0.90 0.90 0.89 0.87 0.89 0.90 0.90 0.90
0.55 0.56 0.55 0.55 0.57 0.61 0.62 0.64 0.65 0.66 0.68 0.67 0.67 0.66 0.66 0.66 0.67 0.70 0.70 0.71 0.71 0.73 0.74 0.76 0.76 0.77 0.78 0.79 0.81 0.83 0.84 0.84 0.85 0.86 0.87 0.86 0.86 0.88 0.90 0.91 0.91 0.90
0.52 0.52 0.52 0.54 0.56 0.58 0.60 0.62 0.64 0.66 0.66 0.68 0.68 0.65 0.66 0.67 0.66 0.66 0.66 0.65 0.67 0.68 0.69 0.70 0.73 0.74 0.75 0.76 0.77 0.79 0.80 0.82 0.82 0.82 0.81 0.82 0.85 0.88 0.91 0.93 0.92 0.92
0.50 0.50 0.51 0.52 0.54 0.55 0.57 0.60 0.62 0.64 0.66 0.65 0.67 0.67 0.66 0.65 0.66 0.66 0.67 0.67 0.67 0.68 0.66 0.65 0.67 0.69 0.70 0.72 0.72 0.73 0.73 0.74 0.75 0.77 0.79 0.81 0.84 0.87 0.91 0.94 0.95 0.95
0.51 0.50 0.51 0.51 0.52 0.53 0.53 0.56 0.58 0.60 0.61 0.63 0.64 0.64 0.64 0.63 0.63 0.63 0.66 0.67 0.67 0.68 0.68 0.69 0.67 0.66 0.66 0.68 0.70 0.71 0.72 0.73 0.75 0.76 0.77 0.79 0.82 0.85 0.89 0.91 0.94 0.95
0.56 0.55 0.55 0.53 0.51 0.49 0.48 0.50 0.51 0.53 0.55 0.57 0.58 0.59 0.61 0.62 0.63 0.64 0.63 0.62 0.63 0.64 0.65 0.67 0.66 0.65 0.65 0.65 0.65 0.67 0.70 0.71 0.73 0.75 0.76 0.77 0.79 0.82 0.86 0.89 0.92 0.94
0.61 0.59 0.58 0.57 0.54 0.52 0.50 0.50 0.51 0.53 0.54 0.55 0.56 0.57 0.59 0.60 0.61 0.62 0.63 0.61 0.60 0.61 0.63 0.63 0.64 0.65 0.64 0.64 0.65 0.65 0.67 0.69 0.71 0.73 0.74 0.75 0.75 0.77 0.81 0.86 0.89 0.92
0.70 0.69 0.69 0.67 0.66 0.65 0.63 0.62 0.61 0.61 0.62 0.62 0.63 0.64 0.64 0.64 0.64 0.63 0.63 0.63 0.63 0.62 0.62 0.62 0.63 0.64 0.64 0.66 0.65 0.66 0.67 0.68 0.68 0.69 0.72 0.74 0.74 0.75 0.75 0.80 0.85 0.89
0.68 0.68 0.68 0.68 0.68 0.67 0.67 0.67 0.67 0.67 0.67 0.67 0.68 0.67 0.68 0.70 0.69 0.69 0.69 0.69 0.68 0.67 0.65 0.65 0.66 0.67 0.68 0.67 0.68 0.68 0.69 0.70 0.72 0.72 0.73 0.74 0.75 0.76 0.77 0.79 0.81 0.84
0.66 0.66 0.66 0.67 0.68 0.68 0.69 0.69 0.69 0.69 0.69 0.70 0.70 0.71 0.71 0.70 0.70 0.71 0.70 0.72 0.70 0.67 0.66 0.67 0.68 0.70 0.71 0.71 0.71 0.71 0.72 0.73 0.73 0.74 0.74 0.74 0.75 0.76 0.77 0.77 0.78 0.79
0.65 0.65 0.64 0.65 0.66 0.67 0.67 0.67 0.67 0.67 0.69 0.71 0.72 0.72 0.72 0.71 0.71 0.70 0.70 0.70 0.70 0.68 0.66 0.66 0.67 0.69 0.70 0.70 0.71 0.72 0.73 0.74 0.74 0.74 0.75 0.76 0.77 0.78 0.78 0.78 0.79 0.79
0.60 0.60 0.61 0.64 0.66 0.67 0.67 0.66 0.66 0.66 0.67 0.68 0.69 0.69 0.69 0.69 0.69 0.69 0.70 0.70 0.69 0.67 0.64 0.62 0.64 0.66 0.67 0.68 0.69 0.70 0.71 0.73 0.73 0.75 0.76 0.76 0.79 0.80 0.81 0.81 0.81 0.80
0.54 0.55 0.57 0.59 0.61 0.63 0.63 0.63 0.63 0.63 0.63 0.64 0.64 0.65 0.66 0.68 0.69 0.70 0.70 0.69 0.69 0.67 0.63 0.59 0.61 0.64 0.65 0.65 0.66 0.67 0.68 0.68 0.68 0.68 0.69 0.70 0.72 0.76 0.78 0.79 0.80 0.80
0.53 0.53 0.54 0.55 0.56 0.57 0.58 0.59 0.60 0.61 0.62 0.63 0.61 0.61 0.62 0.62 0.63 0.65 0.68 0.69 0.69 0.68 0.64 0.59 0.58 0.60 0.63 0.64 0.65 0.66 0.66 0.65 0.65 0.65 0.65 0.64 0.65 0.68 0.71 0.73 0.74 0.77
0.51 0.51 0.51 0.51 0.52 0.52 0.54 0.55 0.57 0.59 0.60 0.61 0.59 0.58 0.58 0.59 0.61 0.62 0.64 0.66 0.67 0.68 0.68 0.62 0.58 0.59 0.61 0.62 0.64 0.65 0.66 0.64 0.63 0.62 0.61 0.62 0.63 0.64 0.66 0.68 0.71 0.72
0.49 0.50 0.49 0.49 0.49 0.49 0.51 0.52 0.53 0.54 0.56 0.58 0.58 0.58 0.58 0.59 0.60 0.59 0.60 0.62 0.65 0.67 0.69 0.67 0.63 0.60 0.60 0.60 0.61 0.63 0.65 0.65 0.64 0.62 0.59 0.59 0.60 0.61 0.63 0.63 0.66 0.69
0.46 0.46 0.46 0.46 0.45 0.45 0.46 0.46 0.48 0.49 0.50 0.52 0.53 0.54 0.54 0.55 0.57 0.58 0.58 0.59 0.61 0.62 0.64 0.66 0.66 0.65 0.64 0.62 0.62 0.63 0.65 0.65 0.66 0.63 0.59 0.57 0.58 0.59 0.59 0.61 0.62 0.63
Wind_Speed
32 31 31 31 31 31 32 33 33 34 34 34 34 34 34 35 35 35 35 35 35 35 35 35 35 35 35 35 35 35 35 35 34 34 34 34 34 35 35 35 36 36
32 32 32 32 32 32 33 33 34 34 34 34 34 34 34 35 35 35 36 36 36 36 35 35 35 36 36 36 36 36 36 36 35 35 35 35 35 35 36 36 36 36
33 32 33 33 33 33 33 33 33 33 33 34 34 34 34 34 35 35 36 36 36 36 36 36 36 36 36 36 37 37 37 37 36 36 36 36 36 36 36 36 37 37
33 33 33 33 33 33 33 33 33 33 33 34 34 34 34 35 35 35 36 36 36 36 36 37 36 36 36 36 37 37 37 37 37 37 37 37 37 37 38 37 37 38
35 35 34 34 34 34 34 34 34 33 34 34 34 34 34 34 35 35 35 36 36 36 36 36 37 37 37 37 37 38 37 37 37 37 38 38 38 38 38 38 38 38
36 36 35 35 35 34 34 35 34 34 34 34 34 34 34 34 35 35 35 35 36 36 37 37 37 38 38 38 39 39 39 38 38 38 39 39 39 39 39 39 39 39
37 36 36 36 36 35 35 35 35 35 35 35 35 35 35 35 35 35 35 35 36 37 37 38 38 39 39 39 39 40 40 40 39 40 40 40 40 40 39 39 40 40
36 36 36 36 36 36 36 36 35 35 35 35 35 35 35 35 35 36 36 36 37 37 38 38 39 39 40 40 40 41 41 40 40 41 41 41 41 41 40 40 40 41
36 36 36 37 37 36 36 36 36 35 35 35 35 35 35 36 36 36 36 37 37 38 38 39 39 40 40 41 41 41 42 42 42 42 42 42 42 42 41 41 41 41
37 37 37 37 36 36 36 35 35 35 35 35 35 35 36 36 36 37 37 38 38 39 39 40 40 41 41 42 42 42 43 43 43 43 44 43 43 43 42 42 42 42
37 37 37 37 36 36 36 35 35 35 35 35 35 35 36 36 37 38 38 39 40 40 41 41 42 42 43 43 43 44 44 44 44 45 44 44 44 44 43 43 43 43
37 38 37 37 37 37 36 36 36 36 36 36 36 36 36 36 37 38 38 39 40 40 41 42 42 43 44 44 44 44 45 45 45 45 45 45 44 44 44 44 44 44
38 38 38 38 38 38 37 37 37 37 37 37 37 37 38 38 38 39 39 39 40 41 41 42 43 43 44 44 44 45 45 45 45 45 45 45 45 45 44 44 44 44
38 38 38 38 39 39 39 39 39 39 39 40 40 40 40 40 40 41 41 41 41 41 42 42 43 44 44 45 45 45 45 45 45 45 46 46 45 45 45 45 45 45
38 38 39 40 40 41 41 41 42 42 42 42 42 43 43 43 43 43 43 43 43 43 43 44 44 45 45 45 46 46 46 46 46 46 46 46 46 46 46 46 45 45
38 39 40 41 42 42 43 43 43 43 44 44 44 45 45 45 45 45 45 45 45 45 45 45 45 45 46 47 47 47 47 47 47 47 47 47 47 47 46 46 46 45
39 40 41 42 43 43 44 44 45 45 45 45 45 46 46 46 47 47 47 47 47 47 47 47 46 46 47 48 48 48 48 48 48 48 47 47 47 47 47 46 46 46
41 42 42 43 44 45 45 46 46 47 47 47 47 47 47 48 48 49 49 49 49 49 49 48 48 48 48 48 49 49 49 49 49 48 48 48 48 48 47 47 47 46
41 42 43 44 44 45 46 46 47 47 47 48 48 48 48 49 49 49 50 50 50 50 50 50 49 49 49 49 49 49 49 49 49 49 49 49 49 49 48 48 47 47
40 41 42 43 44 44 45 46 46 47 47 47 47 48 48 48 48 49 49 49 49 49 49 49 48 48 48 49 49 49 49 49 49 49 50 49 49 49 49 48 48 47
39 40 41 41 42 43 43 44 44 45 45 46 46 47 47 47 47 47 47 47 47 47 47 47 47 47 47 47 48 48 48 48 48 49 49 49 49 48 48 49 48 48
38 39 39 40 40 41 41 42 42 43 43 44 45 45 46 46 47 46 46 46 46 46 46 46 46 46 47 47 47 47 47 47 47 48 48 48 48 48 48 49 49 48
38 38 39 39 40 41 41 41 42 42 43 43 44 44 45 45 45 45 45 45 45 45 45 45 45 45 46 46 46 46 46 46 47 47 47 48 48 48 48 48 48 48
39 39 40 40 40 41 42 42 43 43 43 43 44 44 45 44 44 44 44 44 44 45 45 45 45 45 45 46 46 46 46 46 47 47 47 48 47 47 47 47 48 48
41 41 41 41 42 42 43 43 43 43 44 44 44 44 44 44 44 44 44 43 43 44 44 45 46 46 46 47 47 47 47 47 47 47 47 47 46 46 46 46 46 46
42 42 43 43 43 43 44 44 44 44 44 44 44 44 44 44 44 43 43 43 43 44 45 46 47 47 47 47 47 48 48 47 47 47 47 46 45 45 45 45 45 45
Wind_Direction
256 258 260 261 262 263 263 264 265 265 265 265 264 264 263 262 262 262 262 262 262 263 264 264 264 265 265 266 266 267 268 268 269 270 271 272 273 274 275 275 276 277
256 258 260 261 262 263 264 265 265 265 265 265 265 265 264 264 263 262 262 262 263 263 264 264 264 265 266 266 267 267 268 269 269 270 271 272 273 274 275 275 276 277
257 259 260 262 263 264 264 265 265 265 265 265 265 265 265 265 264 263 263 263 264 264 264 265 265 265 266 267 267 268 268 269 269 270 271 272 273 274 275 275 276 276
257 259 261 262 263 264 264 265 265 265 265 265 265 265 265 265 265 264 263 264 264 264 264 265 265 266 267 267 268 268 269 269 270 271 272 273 273 274 275 275 275 275
258 260 261 262 263 263 264 265 265 265 265 265 265 265 265 265 265 265 264 264 264 264 265 265 265 266 267 267 268 269 269 270 270 271 272 273 274 274 275 275 275 275
259 260 261 261 262 263 264 265 265 265 265 265 265 266 266 265 265 265 265 264 264 265 265 265 266 266 267 268 268 269 269 270 271 271 273 274 274 275 275 275 275 275
259 259 260 261 262 263 264 265 265 265 265 265 265 266 266 266 266 266 266 266 265 265 265 266 266 267 267 268 268 269 269 270 271 272 273 274 275 274 274 274 274 274
259 259 259 260 261 262 263 264 265 265 266 266 266 267 267 267 267 267 267 267 267 267 266 266 266 267 267 268 268 268 269 270 271 272 273 274 274 274 274 274 274 274
260 260 260 261 262 262 263 264 266 267 267 268 268 268 269 269 269 269 268 268 269 269 268 267 267 267 267 268 268 268 269 270 271 272 273 274 274 274 274 274 274 274
260 261 261 262 263 264 264 266 267 268 268 269 269 270 270 270 270 270 270 270 270 270 269 269 269 268 269 268 269 269 269 270 271 271 272 273 273 273 273 273 273 273
261 261 262 262 263 264 266 267 268 269 270 270 270 271 271 272 271 271 271 271 271 271 271 271 270 270 270 270 270 270 270 270 271 272 272 273 273 273 273 273 273 273
262 262 262 262 264 265 266 268 269 270 271 271 271 272 272 272 272 272 272 272 272 272 272 272 271 271 271 271 271 271 271 271 271 271 272 272 273 273 273 272 272 273
263 263 263 263 264 265 266 268 269 270 271 272 272 272 272 273 273 273 273 272 272 273 273 272 272 272 272 272 272 272 271 271 271 271 272 272 272 273 273 273 272 272
265 265 265 264 264 265 266 267 268 270 271 272 273 273 273 273 273 274 274 273 273 273 273 273 273 273 272 272 272 272 272 272 271 271 272 272 272 273 273 273 273 272
266 266 266 266 266 266 266 266 267 269 270 272 273 274 274 274 274 274 274 274 273 273 273 273 273 273 273 273 272 272 272 272 272 271 271 272 272 272 272 272 272 273
267 267 267 267 268 268 268 268 269 270 270 272 273 274 275 275 275 274 274 274 274 273 273 273 274 274 273 273 272 272 272 272 272 272 271 272 272 272 272 272 272 273
268 268 269 269 269 270 270 270 271 271 272 273 273 274 275 275 275 274 274 274 273 273 273 273 274 274 273 273 273 272 272 272 272 272 272 271 272 272 272 273 273 273
270 270 270 271 271 271 271 272 272 272 273 274 274 275 275 275 275 275 274 274 274 273 273 273 274 274 274 273 273 272 272 272 272 272 272 272 272 272 273 273 273 273
271 271 272 272 273 273 273 273 273 273 273 274 275 275 275 275 275 275 275 275 274 274 273 274 274 274 274 273 273 273 272 272 272 272 272 272 272 272 273 273 273 273
271 272 272 273 273 274 274 274 274 274 274 274 275 275 276 276 276 276 276 276 275 274 274 274 274 274 274 273 273 273 273 272 272 272 272 272 272 272 272 272 272 272
271 272 273 274 274 274 275 275 275 275 275 275 275 275 276 276 277 277 277 277 276 275 275 275 274 274 274 274 274 273 273 273 273 272 272 272 272 271 271 271 271 271
272 272 273 274 275 275 276 275 275 276 276 276 277 277 277 277 277 277 277 277 277 276 275 275 275 275 274 274 274 274 274 274 274 273 273 272 272 271 271 270 270 270
273 273 274 275 276 276 277 277 277 277 277 277 278 278 279 279 279 278 278 277 276 276 275 275 275 275 274 274 274 274 274 274 274 274 273 273 273 272 271 271 271 270
273 274 274 275 276 276 277 278 278 279 279 278 278 278 279 279 279 279 279 278 277 276 275 275 276 275 275 275 275 275 275 275 275 274 274 273 273 273 273 272 271 271
273 274 274 275 275 276 277 278 278 279 279 279 279 279 279 279 280 280 280 279 278 277 276 276 276 276 276 276 275 275 275 275 275 274 274 274 274 274 273 273 272 271
274 274 275 275 275 276 276 277 277 278 279 279 279 279 279 279 280 280 280 280 279 279 279 278 278 277 277 276 275 275 274 274 274 274 274 275 274 274 274 273 272 272